{"data":{"norad_id":67842,"intl_designator":"2026-033X","name":"STARLINK-36653","alt_names":[],"object_type":"PAYLOAD","status":"ACTIVE","operator":null,"country":"US","launch_date":"2026-02-16","launch_site_code":"AFETR","launch_vehicle":null,"mission":null,"orbit_class":"UNKNOWN","rcs_meters":null,"size_class":null,"mass_kg":null,"dimensions":null,"purposes":["comms"],"wikipedia_slug":null,"has_3d_model":false,"image_url":null,"decayed_at":null,"tle_current":{"epoch":"2026-09-19T22:36:25.693056Z","epoch_age_seconds":114742,"freshness":"FRESH","line1":"1 67842U 26033X   26262.94196404  .00015622  00000+0  57587-3 0  9996","line2":"2 67842  42.9999 249.9074 0001861 295.8014  64.2645 15.27588138 34384","mean_motion":15.27588138,"eccentricity":0.0001861,"inclination_deg":42.9999,"raan_deg":249.9074,"arg_perigee_deg":295.8014,"mean_anomaly_deg":64.2645,"bstar":0.00057587,"rev_number":3438,"period_min":94.266246521482,"perigee_km":481.74786585062,"apogee_km":484.30159024579,"semimajor_km":6861.1617280482,"source":"CELESTRAK","updated_at":"2026-09-20T09:00:43.671392Z"}}}